Location: Bats
(43.6587°N, 0.4584°W)
Time: 06:17:27
(UTC+00:00)

BREEZE-M DEB (TANK) - Pass Details

Date: 12 January 2026
Orbit: 273 x 16131 km, 49.5° (Epoch: 10 February)

Event Time Altitude Azimuth Distance (km) Brightness Sun altitude
Rises 18:20:16 0° 243° (WSW) 2,101 6.9 -16.4°
Reaches altitude 10° 18:21:32 10° 243° (WSW) 1,465 5.7 -16.7°
Maximum altitude 18:24:17 88° 334° (NNW) 655 2.6 -17.1°
Enters shadow 18:27:49 26° 63° (ENE) 2,038 4.6 -17.8°
